QPF
0.00 0.00 0.00 0.00 0.00 0.00 0.00 0.00 0.00 0.00 0.00 0.00 0.00 0.00 0.00 0.00 0.00 0.00 0.00 0.00 0.00 0.00 0.00 0.00 0.00 0.00 0.00 0.00 0.00 0.00 0.00 0.00 0.00 0.00 0.00 0.00 0.00 0.00 0.00 0.00 0.00 0.00 0.00 0.00 0.00
0.00 0.00 0.00 0.00 0.00 0.00 0.00 0.00 0.00 0.00 0.00 0.00 0.00 0.00 0.00 0.00 0.00 0.00 0.00 0.00 0.00 0.00 0.00 0.00 0.00 0.00 0.00 0.00 0.00 0.00 0.00 0.00 0.00 0.00 0.00 0.00 0.00 0.00 0.00 0.00 0.00 0.00 0.00 0.00 0.00
0.00 0.00 0.00 0.00 0.00 0.00 0.00 0.00 0.00 0.00 0.00 0.00 0.00 0.00 0.00 0.00 0.00 0.00 0.00 0.00 0.00 0.00 0.00 0.00 0.00 0.00 0.00 0.00 0.00 0.00 0.00 0.00 0.00 0.00 0.00 0.00 0.00 0.00 0.00 0.00 0.00 0.00 0.00 0.02 0.04
0.00 0.00 0.00 0.00 0.00 0.00 0.00 0.00 0.00 0.00 0.00 0.00 0.00 0.00 0.00 0.00 0.00 0.00 0.00 0.00 0.00 0.00 0.00 0.00 0.00 0.00 0.00 0.00 0.00 0.00 0.00 0.00 0.00 0.00 0.00 0.00 0.00 0.00 0.00 0.00 0.00 0.00 0.03 0.11 0.16
0.00 0.00 0.00 0.00 0.00 0.00 0.00 0.00 0.00 0.00 0.00 0.00 0.00 0.00 0.00 0.00 0.00 0.00 0.00 0.00 0.00 0.00 0.00 0.00 0.00 0.00 0.00 0.00 0.00 0.00 0.00 0.00 0.00 0.00 0.00 0.00 0.00 0.00 0.00 0.00 0.00 0.00 0.00 0.03 0.06
0.00 0.00 0.00 0.00 0.00 0.00 0.00 0.00 0.00 0.00 0.00 0.00 0.00 0.00 0.00 0.00 0.00 0.00 0.00 0.00 0.00 0.00 0.00 0.00 0.00 0.00 0.00 0.00 0.00 0.00 0.00 0.00 0.00 0.00 0.00 0.00 0.00 0.00 0.00 0.00 0.00 0.00 0.00 0.01 0.02
0.00 0.00 0.00 0.00 0.00 0.00 0.00 0.00 0.00 0.00 0.00 0.00 0.00 0.00 0.00 0.00 0.00 0.00 0.00 0.00 0.00 0.00 0.00 0.00 0.00 0.00 0.00 0.00 0.00 0.00 0.00 0.00 0.00 0.00 0.00 0.00 0.00 0.00 0.00 0.00 0.00 0.00 0.00 0.00 0.00
0.00 0.00 0.00 0.00 0.00 0.00 0.00 0.00 0.00 0.00 0.00 0.00 0.00 0.00 0.00 0.00 0.00 0.00 0.00 0.00 0.00 0.00 0.00 0.00 0.00 0.00 0.00 0.00 0.00 0.00 0.00 0.00 0.00 0.00 0.00 0.00 0.00 0.00 0.00 0.00 0.00 0.00 0.00 0.00 0.00
0.00 0.00 0.00 0.00 0.00 0.00 0.00 0.00 0.00 0.00 0.00 0.00 0.00 0.00 0.00 0.00 0.00 0.00 0.00 0.00 0.00 0.00 0.00 0.00 0.00 0.00 0.00 0.00 0.00 0.00 0.00 0.00 0.00 0.00 0.00 0.00 0.00 0.00 0.00 0.00 0.00 0.00 0.00 0.00 0.00
0.00 0.00 0.00 0.00 0.00 0.00 0.00 0.00 0.00 0.00 0.00 0.00 0.00 0.00 0.00 0.00 0.00 0.00 0.00 0.00 0.00 0.00 0.00 0.00 0.00 0.00 0.00 0.00 0.00 0.00 0.00 0.00 0.00 0.00 0.00 0.00 0.00 0.00 0.00 0.00 0.00 0.00 0.00 0.00 0.00
0.00 0.00 0.00 0.00 0.00 0.00 0.00 0.00 0.00 0.00 0.00 0.00 0.00 0.00 0.00 0.00 0.00 0.00 0.00 0.00 0.00 0.00 0.00 0.00 0.00 0.00 0.00 0.00 0.00 0.00 0.00 0.00 0.00 0.00 0.00 0.00 0.00 0.00 0.00 0.00 0.00 0.00 0.00 0.00 0.00
0.00 0.00 0.00 0.00 0.00 0.00 0.00 0.00 0.00 0.00 0.00 0.00 0.00 0.00 0.00 0.00 0.00 0.00 0.00 0.00 0.00 0.00 0.00 0.00 0.00 0.00 0.00 0.00 0.00 0.00 0.00 0.00 0.00 0.00 0.00 0.00 0.00 0.00 0.00 0.00 0.00 0.00 0.00 0.00 0.00
0.00 0.00 0.00 0.00 0.00 0.00 0.00 0.00 0.00 0.00 0.00 0.00 0.00 0.00 0.00 0.00 0.00 0.00 0.00 0.00 0.00 0.00 0.00 0.00 0.00 0.00 0.00 0.00 0.00 0.00 0.00 0.00 0.00 0.00 0.00 0.00 0.00 0.00 0.00 0.00 0.00 0.00 0.00 0.00 0.00
0.00 0.00 0.00 0.00 0.00 0.00 0.00 0.00 0.00 0.00 0.00 0.00 0.00 0.00 0.00 0.00 0.00 0.00 0.00 0.00 0.00 0.00 0.00 0.00 0.00 0.00 0.00 0.00 0.00 0.00 0.00 0.00 0.00 0.00 0.00 0.00 0.00 0.00 0.00 0.00 0.00 0.00 0.00 0.00 0.00
0.00 0.00 0.00 0.00 0.00 0.00 0.00 0.00 0.00 0.00 0.00 0.00 0.00 0.00 0.00 0.00 0.00 0.00 0.00 0.00 0.00 0.00 0.00 0.00 0.00 0.00 0.00 0.00 0.00 0.00 0.00 0.00 0.00 0.00 0.00 0.00 0.00 0.00 0.00 0.00 0.00 0.00 0.00 0.00 0.00
0.00 0.00 0.00 0.00 0.00 0.00 0.00 0.00 0.00 0.00 0.00 0.00 0.00 0.00 0.00 0.00 0.00 0.00 0.00 0.00 0.00 0.00 0.00 0.00 0.00 0.00 0.00 0.00 0.00 0.00 0.00 0.00 0.00 0.00 0.00 0.00 0.00 0.00 0.00 0.00 0.00 0.00 0.00 0.00 0.00
0.00 0.00 0.00 0.00 0.00 0.00 0.00 0.00 0.00 0.00 0.00 0.00 0.00 0.00 0.00 0.00 0.00 0.00 0.00 0.00 0.00 0.00 0.00 0.00 0.00 0.00 0.00 0.00 0.00 0.00 0.00 0.00 0.00 0.00 0.00 0.00 0.00 0.00 0.00 0.00 0.00 0.00 0.00 0.00 0.00
0.00 0.00 0.00 0.00 0.00 0.00 0.00 0.00 0.00 0.00 0.00 0.00 0.00 0.00 0.00 0.00 0.00 0.00 0.00 0.00 0.00 0.00 0.00 0.00 0.00 0.00 0.00 0.00 0.00 0.00 0.00 0.00 0.00 0.00 0.00 0.00 0.00 0.01 0.00 0.00 0.00 0.01 0.00 0.01 0.00
0.00 0.00 0.00 0.00 0.00 0.00 0.00 0.00 0.00 0.00 0.00 0.00 0.00 0.00 0.00 0.00 0.00 0.00 0.00 0.00 0.00 0.00 0.00 0.00 0.00 0.00 0.00 0.00 0.00 0.00 0.00 0.01 0.02 0.01 0.01 0.00 0.01 0.01 0.01 0.01 0.02 0.03 0.01 0.01 0.00
0.00 0.00 0.00 0.00 0.00 0.00 0.00 0.00 0.00 0.00 0.00 0.00 0.00 0.00 0.00 0.00 0.00 0.00 0.00 0.00 0.00 0.00 0.00 0.00 0.00 0.00 0.00 0.00 0.00 0.00 0.00 0.00 0.02 0.06 0.03 0.00 0.01 0.02 0.01 0.01 0.03 0.02 0.01 0.00 0.00
0.00 0.00 0.00 0.00 0.00 0.00 0.00 0.00 0.00 0.00 0.00 0.00 0.00 0.00 0.00 0.00 0.00 0.00 0.00 0.00 0.00 0.00 0.00 0.00 0.00 0.00 0.00 0.00 0.00 0.00 0.00 0.00 0.02 0.03 0.04 0.01 0.02 0.00 0.00 0.00 0.00 0.01 0.01 0.00 0.00
0.00 0.00 0.00 0.00 0.00 0.00 0.00 0.00 0.00 0.00 0.00 0.00 0.00 0.00 0.00 0.00 0.00 0.00 0.00 0.00 0.00 0.00 0.00 0.00 0.00 0.00 0.00 0.00 0.00 0.00 0.00 0.00 0.00 0.00 0.00 0.00 0.00 0.00 0.00 0.00 0.00 0.00 0.00 0.00 0.00
0.00 0.00 0.00 0.00 0.00 0.00 0.00 0.00 0.00 0.00 0.00 0.00 0.00 0.00 0.00 0.00 0.00 0.00 0.00 0.00 0.00 0.00 0.00 0.00 0.00 0.00 0.00 0.00 0.00 0.00 0.00 0.00 0.00 0.00 0.00 0.00 0.00 0.00 0.00 0.00 0.00 0.00 0.00 0.00 0.00
0.00 0.00 0.00 0.00 0.00 0.00 0.00 0.00 0.00 0.00 0.00 0.00 0.00 0.00 0.00 0.00 0.00 0.00 0.00 0.00 0.00 0.00 0.00 0.00 0.00 0.00 0.00 0.00 0.00 0.00 0.00 0.00 0.00 0.00 0.00 0.00 0.00 0.00 0.00 0.00 0.00 0.00 0.00 0.00 0.00
0.00 0.00 0.00 0.00 0.00 0.00 0.00 0.00 0.00 0.00 0.00 0.00 0.00 0.00 0.00 0.00 0.00 0.00 0.00 0.00 0.00 0.00 0.00 0.00 0.00 0.00 0.00 0.00 0.00 0.00 0.00 0.00 0.00 0.00 0.00 0.00 0.00 0.00 0.00 0.00 0.00 0.00 0.00 0.00 0.00
0.00 0.00 0.00 0.00 0.00 0.00 0.00 0.00 0.00 0.00 0.00 0.00 0.00 0.00 0.00 0.00 0.00 0.00 0.00 0.00 0.00 0.00 0.00 0.00 0.00 0.00 0.00 0.00 0.00 0.00 0.00 0.00 0.00 0.00 0.00 0.00 0.00 0.00 0.00 0.00 0.00 0.00 0.00 0.00 0.00
0.00 0.00 0.00 0.00 0.00 0.00 0.00 0.00 0.00 0.00 0.00 0.00 0.00 0.00 0.00 0.00 0.00 0.00 0.00 0.00 0.00 0.00 0.00 0.00 0.00 0.00 0.00 0.00 0.00 0.00 0.00 0.00 0.00 0.00 0.00 0.00 0.00 0.00 0.00 0.00 0.00 0.00 0.00 0.00 0.00
MSLP
1018.38 1018.03 1017.68 1017.33 1017.07 1016.82 1016.56 1016.27 1016.04 1015.82 1015.65 1015.59 1015.51 1015.46 1015.40 1015.26 1014.90 1014.78 1013.64 1011.24 1011.15 1011.06 1011.53 1011.27 1011.40 1011.33 1011.14 1011.11 1010.69 1010.68 1011.53 1011.26 1009.58 1007.77 1006.71 1005.24 1003.94 1002.76 1002.53 1003.00 1004.11 1005.33 1005.44 1006.43 1006.91
1018.38 1017.96 1017.57 1017.21 1016.89 1016.63 1016.37 1016.12 1015.88 1015.70 1015.58 1015.54 1015.50 1015.40 1015.32 1015.17 1014.68 1013.18 1010.58 1010.28 1010.13 1010.60 1011.45 1011.26 1011.30 1011.12 1011.38 1010.79 1010.76 1010.71 1010.97 1010.39 1008.72 1007.63 1006.92 1005.89 1004.76 1003.97 1003.62 1003.66 1005.44 1006.06 1006.34 1006.86 1007.08
1018.35 1017.89 1017.48 1017.11 1016.72 1016.43 1016.21 1015.95 1015.70 1015.55 1015.42 1015.38 1015.43 1015.41 1015.29 1015.12 1014.26 1010.54 1008.53 1009.92 1010.12 1010.40 1010.55 1010.47 1010.45 1010.61 1010.94 1010.53 1010.27 1010.10 1010.15 1009.42 1008.25 1007.63 1006.74 1006.13 1005.11 1004.48 1004.52 1004.85 1005.41 1006.44 1008.11 1009.31 1010.61
1018.33 1017.81 1017.40 1017.02 1016.58 1016.23 1015.99 1015.75 1015.50 1015.34 1015.25 1015.27 1015.35 1015.36 1015.19 1014.95 1012.80 1009.32 1008.71 1009.64 1010.14 1010.38 1010.62 1010.70 1010.40 1010.52 1010.58 1010.50 1009.46 1009.73 1008.91 1008.29 1007.36 1006.78 1006.51 1005.94 1005.53 1005.26 1005.08 1005.58 1005.72 1007.65 1009.22 1009.10 1011.86
1018.25 1017.72 1017.23 1016.79 1016.38 1015.97 1015.65 1015.46 1015.25 1015.09 1015.11 1015.21 1015.29 1015.26 1015.32 1014.18 1011.18 1009.53 1009.45 1009.81 1010.29 1010.43 1010.52 1010.46 1010.29 1010.05 1010.03 1009.38 1009.15 1009.00 1008.26 1007.51 1006.71 1006.43 1006.27 1005.45 1005.64 1005.71 1005.52 1005.42 1006.68 1007.80 1008.97 1009.15 1010.89
1018.14 1017.51 1016.94 1016.46 1016.02 1015.65 1015.35 1015.13 1014.97 1014.84 1014.87 1015.01 1015.15 1015.18 1014.80 1012.30 1008.62 1008.99 1009.45 1010.00 1009.90 1010.32 1010.17 1009.98 1009.44 1008.83 1009.02 1008.97 1008.82 1007.95 1007.56 1007.02 1006.55 1006.40 1006.07 1005.81 1005.58 1005.45 1005.36 1005.01 1006.58 1007.96 1008.42 1008.59 1008.65
1018.00 1017.35 1016.72 1016.20 1015.74 1015.35 1015.03 1014.80 1014.62 1014.52 1014.59 1014.77 1014.96 1014.78 1013.44 1010.31 1008.22 1008.79 1009.11 1009.59 1009.51 1009.59 1009.59 1008.95 1008.68 1008.69 1008.65 1008.85 1008.07 1008.05 1007.61 1006.96 1006.53 1006.27 1006.21 1005.55 1005.80 1005.47 1005.14 1005.14 1005.62 1007.68 1007.95 1007.44 1006.82
1017.83 1017.18 1016.56 1015.96 1015.43 1015.01 1014.70 1014.52 1014.33 1014.12 1014.36 1014.62 1014.85 1014.39 1012.01 1008.11 1007.93 1008.67 1008.76 1009.23 1009.17 1009.00 1008.90 1008.40 1008.01 1008.22 1008.62 1008.85 1008.52 1008.73 1007.97 1007.80 1006.78 1006.18 1005.51 1005.67 1005.43 1005.08 1004.79 1004.96 1005.47 1005.93 1007.34 1007.36 1007.23
1017.76 1017.04 1016.42 1015.82 1015.25 1014.81 1014.53 1014.30 1014.09 1014.13 1014.25 1014.58 1014.72 1013.94 1010.64 1007.55 1007.52 1007.66 1007.86 1008.55 1008.65 1008.56 1008.35 1008.05 1008.27 1008.94 1009.03 1009.61 1009.78 1009.11 1008.64 1007.88 1006.80 1005.64 1005.25 1005.33 1005.12 1004.64 1004.22 1004.62 1004.95 1005.14 1005.69 1005.81 1007.51
1017.64 1016.95 1016.32 1015.74 1015.18 1014.70 1014.34 1014.28 1014.13 1014.25 1014.30 1014.14 1013.20 1012.88 1009.63 1007.34 1006.92 1007.15 1007.29 1007.69 1008.07 1008.21 1008.49 1008.59 1009.10 1009.61 1009.87 1010.07 1010.06 1009.27 1008.60 1007.59 1006.74 1005.82 1005.21 1005.09 1004.37 1004.37 1003.87 1004.18 1004.46 1004.99 1005.23 1006.33 1007.40
1017.38 1016.70 1016.05 1015.59 1015.07 1014.65 1013.94 1014.16 1014.26 1013.73 1012.74 1011.70 1010.56 1009.31 1007.52 1006.55 1006.33 1006.92 1007.03 1007.39 1007.83 1008.21 1008.93 1009.10 1009.70 1009.83 1009.74 1009.45 1008.93 1008.57 1008.07 1007.30 1006.36 1005.53 1005.49 1005.40 1005.28 1004.37 1003.68 1003.89 1004.07 1004.70 1005.38 1006.36 1007.09
1017.63 1016.66 1015.79 1014.89 1014.65 1014.41 1014.40 1013.36 1011.46 1010.92 1010.21 1009.35 1008.74 1008.19 1006.96 1006.11 1006.27 1006.51 1006.73 1007.60 1008.06 1008.59 1008.92 1009.46 1009.32 1009.09 1008.89 1008.44 1008.08 1007.80 1007.59 1007.18 1006.25 1005.69 1005.83 1005.69 1005.44 1004.48 1004.03 1003.74 1003.94 1004.28 1005.22 1006.20 1007.28
1017.98 1016.96 1015.79 1014.55 1013.62 1013.97 1013.21 1011.21 1009.94 1009.91 1009.99 1007.57 1006.42 1006.15 1005.61 1005.65 1005.77 1005.91 1006.37 1007.16 1007.95 1008.67 1008.96 1009.15 1008.57 1007.96 1007.96 1007.73 1007.44 1007.27 1007.30 1007.08 1006.86 1006.40 1006.25 1006.35 1005.70 1005.01 1004.04 1003.77 1003.80 1003.85 1004.82 1006.04 1006.82
1017.79 1016.96 1016.18 1014.72 1013.40 1012.59 1011.59 1010.25 1009.79 1010.00 1009.92 1006.64 1005.21 1004.70 1004.87 1005.34 1005.41 1005.39 1005.77 1006.84 1007.70 1008.20 1008.54 1008.47 1007.81 1007.44 1007.03 1006.69 1006.56 1006.59 1006.69 1006.78 1007.06 1007.45 1007.11 1006.82 1006.39 1006.07 1005.41 1004.34 1004.63 1005.09 1005.52 1006.20 1006.78
1017.58 1016.63 1015.67 1015.74 1014.25 1012.64 1011.03 1010.16 1010.08 1010.32 1009.09 1005.18 1004.65 1004.32 1004.33 1005.17 1004.99 1004.98 1005.30 1006.13 1006.97 1007.69 1008.23 1007.79 1007.50 1006.92 1006.43 1006.15 1005.92 1005.96 1006.05 1006.62 1007.25 1007.87 1008.03 1007.39 1008.24 1006.69 1006.26 1005.95 1005.50 1005.27 1005.58 1006.22 1006.98
1017.31 1016.33 1015.84 1014.45 1013.74 1011.74 1010.63 1010.32 1010.38 1010.56 1007.42 1004.78 1004.54 1004.59 1004.93 1005.07 1005.00 1005.10 1005.37 1005.85 1006.38 1007.20 1007.55 1007.45 1006.87 1006.46 1005.86 1005.59 1005.60 1005.95 1006.59 1007.05 1007.65 1008.75 1009.05 1008.57 1009.75 1008.43 1009.02 1008.51 1007.08 1006.31 1006.13 1006.67 1007.22
1016.84 1015.23 1015.59 1013.96 1012.57 1011.13 1010.86 1010.80 1011.00 1009.47 1005.63 1004.97 1004.76 1004.75 1005.05 1005.15 1005.11 1005.06 1005.49 1006.08 1006.75 1007.27 1007.73 1007.38 1006.80 1006.04 1006.02 1005.58 1005.83 1006.41 1007.78 1009.13 1010.10 1010.80 1010.25 1010.77 1011.69 1011.99 1011.34 1010.93 1009.82 1006.65 1005.78 1006.63 1007.48
1016.47 1014.57 1013.53 1012.55 1011.62 1011.31 1011.54 1011.77 1010.87 1008.13 1006.96 1005.62 1005.55 1005.65 1005.97 1006.08 1005.91 1005.69 1005.72 1006.22 1006.47 1006.98 1007.25 1007.35 1007.03 1006.41 1006.55 1007.05 1007.59 1007.80 1008.76 1010.72 1012.68 1013.59 1013.67 1012.81 1012.93 1014.28 1012.60 1013.10 1012.02 1010.99 1011.28 1007.67 1008.87
1016.21 1014.06 1013.06 1011.93 1011.57 1011.53 1012.30 1012.03 1009.97 1008.31 1007.59 1007.31 1006.87 1006.78 1006.68 1006.53 1006.46 1006.21 1006.26 1006.50 1006.26 1006.39 1007.10 1007.19 1006.91 1006.63 1006.96 1007.49 1008.11 1008.74 1009.99 1011.70 1013.70 1014.88 1015.81 1014.56 1013.99 1013.34 1014.50 1014.29 1013.81 1014.25 1014.04 1014.80 1011.58
1017.61 1015.15 1012.54 1011.18 1011.23 1012.00 1012.66 1011.80 1010.10 1008.54 1008.13 1008.18 1008.15 1007.92 1007.95 1007.72 1007.42 1007.01 1006.81 1006.30 1006.32 1006.33 1006.75 1007.65 1008.05 1007.85 1007.80 1008.06 1008.50 1009.11 1010.40 1012.40 1014.60 1016.74 1017.40 1016.63 1015.93 1015.97 1015.59 1015.96 1016.86 1016.55 1017.44 1017.01 1016.90
1017.68 1015.39 1011.97 1011.14 1011.37 1012.42 1012.77 1011.46 1009.92 1009.07 1009.00 1009.28 1009.26 1009.35 1009.35 1009.37 1008.92 1008.47 1007.71 1007.04 1006.80 1007.03 1007.47 1008.19 1009.09 1009.41 1009.38 1009.50 1009.78 1010.27 1011.29 1014.12 1016.28 1017.63 1018.31 1018.18 1017.46 1017.51 1017.56 1017.88 1018.31 1018.12 1018.22 1018.50 1019.26
1019.16 1016.07 1011.79 1011.41 1012.33 1012.38 1012.56 1011.83 1010.10 1009.44 1009.28 1009.64 1009.79 1010.10 1010.32 1010.35 1010.02 1009.57 1008.73 1008.29 1007.92 1008.11 1008.70 1009.52 1010.13 1010.64 1010.49 1010.19 1010.21 1010.79 1012.12 1014.08 1016.48 1018.06 1018.65 1019.07 1017.97 1017.45 1017.65 1017.91 1017.88 1018.16 1018.31 1019.09 1019.22
1020.71 1016.83 1012.41 1012.38 1013.32 1013.68 1013.20 1012.47 1011.67 1010.70 1010.29 1010.14 1010.27 1010.41 1010.81 1011.16 1011.07 1009.89 1009.33 1008.82 1008.65 1009.09 1009.86 1010.60 1011.15 1011.67 1011.45 1011.36 1011.06 1011.66 1012.46 1013.63 1015.74 1017.46 1018.34 1018.63 1017.32 1016.80 1017.16 1017.36 1017.33 1017.63 1018.02 1018.40 1019.61
1021.52 1018.00 1014.95 1014.39 1015.09 1015.56 1015.21 1013.80 1012.72 1011.97 1011.54 1011.19 1011.26 1010.90 1011.43 1011.48 1011.31 1010.82 1010.20 1009.44 1009.39 1009.90 1010.61 1011.01 1012.16 1012.79 1012.69 1012.32 1012.11 1012.27 1012.40 1013.16 1014.83 1016.58 1016.90 1016.77 1016.10 1015.95 1015.84 1016.38 1016.96 1017.35 1017.51 1018.23 1018.53
1021.41 1019.39 1018.87 1017.58 1016.69 1017.05 1016.53 1015.42 1014.18 1013.08 1012.44 1011.89 1011.53 1011.47 1011.65 1011.94 1011.80 1011.50 1010.85 1010.26 1009.84 1010.27 1010.99 1011.93 1012.74 1012.94 1012.73 1012.40 1012.07 1011.93 1012.02 1012.46 1013.23 1014.03 1015.13 1014.79 1014.51 1014.16 1014.20 1014.58 1015.05 1016.02 1016.53 1017.07 1017.25
1022.18 1021.48 1020.66 1019.80 1018.66 1017.77 1016.95 1015.84 1014.70 1013.51 1012.94 1012.71 1012.46 1012.27 1012.16 1012.47 1012.33 1012.34 1012.17 1012.00 1011.50 1011.49 1011.36 1011.95 1013.04 1013.46 1013.33 1012.82 1012.27 1011.81 1011.55 1011.60 1011.93 1012.40 1012.81 1013.02 1012.96 1012.11 1011.88 1013.07 1014.31 1015.26 1015.75 1015.81 1015.60
1023.65 1022.74 1021.96 1020.70 1019.62 1018.80 1017.46 1016.31 1015.48 1014.56 1013.66 1013.08 1013.07 1013.14 1012.89 1012.65 1012.66 1012.55 1012.64 1012.69 1012.45 1012.16 1011.89 1012.44 1013.39 1014.14 1014.13 1013.63 1012.83 1011.96 1011.40 1011.20 1011.25 1011.48 1012.17 1012.70 1012.91 1012.53 1012.94 1013.82 1014.70 1015.42 1015.50 1015.93 1015.62
Thickness
5733 5736 5739 5743 5746 5749 5752 5755 5757 5759 5761 5762 5763 5764 5765 5767 5771 5772 5774 5798 5801 5804 5802 5803 5799 5798 5800 5793 5801 5802 5754 5746 5778 5796 5803 5832 5843 5868 5876 5863 5855 5844 5845 5848 5854
5732 5736 5740 5743 5747 5750 5752 5755 5757 5759 5760 5761 5762 5764 5765 5767 5772 5778 5805 5808 5810 5808 5797 5792 5785 5792 5780 5788 5789 5777 5752 5766 5802 5810 5804 5821 5829 5839 5843 5850 5832 5835 5843 5845 5847
5732 5736 5740 5743 5747 5750 5752 5755 5757 5759 5760 5761 5761 5763 5764 5767 5769 5794 5822 5810 5810 5809 5806 5804 5801 5793 5778 5787 5786 5783 5766 5788 5803 5808 5816 5814 5825 5838 5829 5821 5835 5825 5817 5807 5801
5731 5735 5739 5742 5747 5750 5753 5755 5757 5759 5760 5761 5761 5762 5764 5767 5763 5810 5819 5812 5809 5807 5802 5795 5793 5782 5775 5770 5793 5775 5794 5800 5810 5819 5817 5813 5825 5821 5829 5828 5839 5818 5804 5809 5788
5729 5734 5738 5742 5746 5750 5753 5755 5758 5760 5760 5760 5760 5761 5763 5763 5776 5810 5812 5810 5806 5803 5794 5789 5783 5783 5770 5783 5788 5783 5794 5809 5817 5816 5817 5827 5817 5817 5821 5841 5828 5815 5801 5800 5789
5728 5733 5738 5743 5747 5750 5753 5756 5758 5760 5761 5760 5759 5760 5762 5759 5815 5813 5810 5805 5805 5798 5795 5794 5791 5799 5789 5786 5783 5799 5801 5806 5815 5812 5813 5812 5813 5820 5825 5845 5827 5807 5801 5805 5812
5728 5733 5738 5743 5747 5751 5754 5757 5759 5761 5761 5760 5759 5762 5766 5775 5817 5814 5812 5805 5808 5804 5794 5806 5808 5797 5795 5781 5801 5798 5786 5797 5805 5810 5803 5817 5795 5804 5827 5835 5830 5797 5801 5809 5824
5728 5733 5738 5743 5748 5752 5755 5757 5760 5761 5761 5760 5759 5763 5763 5816 5819 5811 5813 5804 5810 5811 5807 5814 5815 5802 5793 5793 5788 5775 5781 5761 5792 5804 5814 5804 5773 5811 5826 5824 5822 5825 5798 5803 5806
5727 5733 5738 5743 5748 5752 5755 5757 5759 5759 5759 5758 5758 5759 5766 5819 5807 5817 5817 5800 5804 5807 5809 5814 5804 5783 5783 5761 5746 5762 5740 5756 5775 5806 5804 5795 5782 5812 5825 5819 5815 5823 5819 5823 5800
5728 5733 5739 5743 5747 5751 5755 5756 5756 5757 5756 5758 5766 5753 5782 5791 5810 5813 5818 5810 5797 5796 5788 5784 5772 5753 5751 5739 5711 5735 5742 5756 5759 5788 5794 5782 5786 5802 5821 5819 5813 5814 5817 5805 5796
5730 5735 5740 5743 5747 5750 5755 5755 5749 5747 5760 5759 5769 5777 5794 5810 5817 5802 5809 5798 5792 5782 5751 5762 5738 5726 5739 5749 5757 5757 5754 5754 5772 5789 5777 5773 5774 5793 5808 5811 5808 5806 5804 5794 5792
5727 5734 5741 5748 5749 5751 5751 5750 5764 5768 5752 5780 5782 5783 5799 5809 5785 5792 5804 5773 5766 5746 5757 5741 5726 5748 5759 5761 5757 5753 5743 5743 5765 5781 5776 5767 5765 5786 5797 5800 5807 5804 5795 5789 5782
5723 5730 5740 5749 5756 5753 5755 5766 5781 5780 5746 5776 5793 5789 5794 5798 5780 5782 5790 5774 5756 5742 5741 5725 5744 5763 5755 5750 5747 5746 5736 5738 5738 5760 5768 5758 5753 5765 5791 5799 5807 5807 5796 5788 5781
5722 5728 5734 5746 5753 5759 5758 5775 5778 5775 5719 5764 5780 5790 5795 5791 5772 5796 5795 5772 5754 5737 5739 5736 5755 5751 5749 5744 5749 5724 5754 5751 5743 5729 5702 5754 5711 5742 5761 5779 5784 5783 5781 5775 5775
5720 5727 5735 5733 5742 5745 5761 5772 5773 5756 5691 5776 5781 5807 5797 5773 5778 5777 5793 5771 5744 5740 5737 5731 5737 5738 5737 5744 5755 5740 5759 5746 5740 5723 5714 5730 5696 5730 5758 5756 5764 5770 5773 5768 5766
5717 5724 5728 5738 5741 5754 5763 5765 5754 5707 5691 5758 5774 5768 5762 5767 5767 5771 5770 5774 5764 5740 5740 5735 5756 5749 5746 5755 5755 5757 5741 5732 5728 5711 5678 5718 5705 5719 5725 5739 5757 5759 5760 5757 5754
5715 5728 5724 5734 5737 5754 5756 5742 5701 5690 5770 5750 5751 5762 5755 5749 5752 5756 5747 5734 5719 5705 5701 5722 5730 5750 5748 5733 5742 5737 5704 5660 5654 5657 5669 5703 5675 5681 5689 5700 5708 5752 5757 5748 5741
5712 5727 5733 5737 5744 5745 5736 5708 5686 5728 5732 5758 5752 5747 5732 5740 5738 5739 5735 5717 5734 5719 5701 5691 5684 5725 5732 5715 5702 5708 5703 5663 5625 5627 5637 5677 5660 5646 5681 5677 5689 5698 5692 5734 5719
5706 5722 5726 5735 5737 5735 5705 5679 5697 5721 5732 5723 5730 5717 5716 5730 5727 5727 5722 5712 5725 5727 5696 5689 5695 5726 5725 5718 5708 5693 5670 5673 5647 5636 5620 5648 5667 5674 5661 5660 5670 5664 5661 5634 5660
5684 5700 5716 5731 5730 5714 5686 5679 5698 5722 5725 5719 5696 5709 5694 5705 5704 5708 5703 5722 5718 5724 5717 5699 5669 5705 5708 5708 5704 5690 5687 5644 5632 5608 5594 5614 5630 5632 5641 5641 5639 5637 5624 5614 5620
5674 5681 5714 5720 5717 5687 5663 5682 5699 5714 5709 5696 5685 5680 5683 5680 5686 5684 5692 5707 5711 5705 5703 5696 5669 5668 5681 5675 5663 5657 5649 5621 5615 5609 5591 5586 5610 5618 5617 5619 5619 5622 5621 5611 5594
5650 5657 5706 5710 5672 5674 5667 5681 5700 5700 5699 5691 5687 5679 5670 5671 5668 5669 5676 5685 5698 5693 5677 5673 5658 5638 5650 5670 5675 5664 5643 5623 5591 5594 5587 5578 5586 5614 5606 5605 5608 5610 5608 5600 5591
5628 5648 5691 5684 5647 5649 5663 5668 5673 5678 5676 5675 5668 5672 5668 5656 5644 5667 5668 5686 5682 5675 5659 5656 5633 5613 5626 5639 5651 5638 5638 5629 5601 5586 5578 5566 5581 5608 5602 5601 5605 5600 5600 5596 5581
5615 5629 5648 5652 5645 5634 5628 5639 5643 5659 5657 5660 5652 5661 5648 5641 5647 5641 5652 5668 5670 5658 5655 5649 5625 5612 5592 5612 5624 5619 5624 5624 5598 5567 5578 5580 5593 5602 5606 5597 5593 5592 5591 5582 5582
5606 5612 5611 5611 5615 5605 5611 5620 5624 5627 5638 5642 5638 5641 5635 5622 5627 5628 5639 5644 5654 5645 5639 5624 5603 5615 5617 5622 5624 5620 5620 5618 5604 5596 5576 5595 5598 5604 5604 5602 5598 5591 5587 5584 5580
5585 5583 5587 5587 5597 5601 5601 5604 5609 5621 5622 5620 5618 5624 5620 5608 5614 5611 5611 5611 5621 5625 5621 5617 5594 5603 5599 5613 5614 5610 5615 5617 5614 5613 5603 5601 5594 5615 5618 5608 5595 5588 5586 5586 5588
5559 5564 5565 5576 5579 5579 5586 5593 5595 5601 5610 5615 5608 5601 5601 5606 5605 5608 5606 5604 5606 5602 5602 5599 5586 5577 5569 5596 5597 5580 5603 5608 5607 5613 5601 5590 5595 5599 5598 5593 5585 5578 5581 5576 5578